| time (UTC) | temp F | wind direction | speed MPH | gust MPH | rain 1hr in | rain 24hr in | rain mn in | humidity % | barometer mb |
| 20260509162409 | 58 | 294 | 0.0 | 0.0 | 0.00 | 0.00 | 0.00 | 63 | 1018.9 |
| 20260509160909 | 58 | 284 | 0.0 | 0.0 | 0.00 | 0.00 | 0.00 | 64 | 1019.1 |
| 20260509155409 | 57 | 288 | 0.0 | 0.0 | 0.00 | 0.00 | 0.00 | 67 | 1019.2 |
| 20260509153908 | 56 | 287 | 0.0 | 0.0 | 0.00 | 0.00 | 0.00 | 69 | 1019.3 |
| 20260509152405 | 56 | 78 | 0.0 | 0.0 | 0.00 | 0.00 | 0.00 | 69 | 1019.4 |
| 20260509152257 | 55 | 79 | 0.0 | 0.0 | 0.00 | 0.00 | 0.00 | 71 | 1019.8 |
| 20260509145405 | 54 | 79 | 0.0 | 0.0 | 0.00 | 0.00 | 0.00 | 74 | 1019.8 |
| 20260509143903 | 52 | 79 | 0.0 | 0.0 | 0.00 | 0.00 | 0.00 | 76 | 1020.0 |
| 20260509142401 | 51 | 79 | 0.0 | 0.0 | 0.00 | 0.00 | 0.00 | 77 | 1019.9 |
| 20260509141559 | 51 | 79 | 0.0 | 0.0 | 0.00 | 0.00 | 0.00 | 78 | 1019.8 |
| 20260509135359 | 50 | 48 | 0.0 | 0.0 | 0.00 | 0.00 | 0.00 | 80 | 1019.8 |
| 20260509133857 | 49 | 48 | 0.0 | 0.0 | 0.00 | 0.00 | 0.00 | 82 | 1019.6 |
| 20260509132355 | 49 | 48 | 0.0 | 0.0 | 0.00 | 0.00 | 0.00 | 81 | 1019.6 |
| 20260509130853 | 49 | 48 | 0.0 | 0.0 | 0.00 | 0.00 | 0.00 | 80 | 1019.6 |
| 20260509125351 | 49 | 108 | 0.0 | 0.0 | 0.00 | 0.00 | 0.00 | 80 | 1019.7 |
| 20260509123853 | 49 | 108 | 0.0 | 0.0 | 0.00 | 0.00 | 0.00 | 80 | 1019.6 |
| 20260509122348 | 50 | 108 | 0.0 | 0.0 | 0.00 | 0.00 | 0.00 | 79 | 1019.7 |
| 20260509120847 | 50 | 108 | 0.0 | 0.0 | 0.00 | 0.00 | 0.00 | 78 | 1019.6 |
| 20260509115344 | 51 | 108 | 0.0 | 0.0 | 0.00 | 0.00 | 0.00 | 78 | 1019.6 |
| 20260509113847 | 51 | 143 | 0.0 | 0.0 | 0.00 | 0.00 | 0.00 | 79 | 1019.8 |
| 20260509113048 | 51 | 143 | 0.0 | 0.0 | 0.00 | 0.00 | 0.00 | 78 | 1019.9 |
| 20260509110842 | 51 | 143 | 0.0 | 0.0 | 0.00 | 0.00 | 0.00 | 78 | 1020.1 |
| 20260509105340 | 52 | 143 | 0.0 | 0.0 | 0.00 | 0.00 | 0.00 | 77 | 1020.2 |
| 20260509103839 | 52 | 143 | 0.0 | 0.0 | 0.00 | 0.00 | 0.00 | 77 | 1020.1 |
| 20260509102338 | 52 | 143 | 0.0 | 0.0 | 0.00 | 0.00 | 0.00 | 76 | 1020.1 |
| 20260509100837 | 53 | 143 | 0.0 | 0.0 | 0.00 | 0.00 | 0.00 | 75 | 1020.0 |
| 20260509095338 | 53 | 143 | 0.0 | 0.0 | 0.00 | 0.00 | 0.00 | 74 | 1020.2 |
| 20260509093836 | 54 | 143 | 0.0 | 0.0 | 0.00 | 0.00 | 0.00 | 74 | 1020.1 |
| 20260509092331 | 54 | 143 | 0.0 | 0.0 | 0.00 | 0.00 | 0.00 | 73 | 1020.2 |
| 20260509090830 | 55 | 143 | 0.0 | 0.0 | 0.00 | 0.00 | 0.00 | 72 | 1020.2 |
| 20260509085328 | 55 | 143 | 0.0 | 0.0 | 0.00 | 0.00 | 0.00 | 71 | 1020.4 |
| 20260509083826 | 56 | 143 | 0.0 | 0.0 | 0.00 | 0.00 | 0.00 | 70 | 1020.5 |
| 20260509082325 | 56 | 143 | 0.0 | 0.0 | 0.00 | 0.00 | 0.00 | 69 | 1020.4 |
| 20260509080822 | 57 | 143 | 0.0 | 0.0 | 0.00 | 0.00 | 0.00 | 67 | 1020.3 |
| 20260509075322 | 57 | 143 | 0.0 | 0.0 | 0.00 | 0.00 | 0.00 | 66 | 1020.4 |
| 20260509073822 | 58 | 143 | 0.0 | 0.0 | 0.00 | 0.00 | 0.00 | 65 | 1020.2 |
| 20260509072322 | 58 | 143 | 0.0 | 0.0 | 0.00 | 0.00 | 0.00 | 64 | 1020.3 |
| 20260509070822 | 59 | 143 | 0.0 | 0.0 | 0.00 | 0.00 | 0.00 | 62 | 1020.3 |
| 20260509065322 | 60 | 143 | 0.0 | 0.0 | 0.00 | 0.00 | 0.00 | 60 | 1020.4 |
| 20260509063821 | 61 | 143 | 0.0 | 0.0 | 0.00 | 0.00 | 0.00 | 58 | 1020.3 |
| 20260509062319 | 62 | 143 | 0.0 | 0.0 | 0.00 | 0.00 | 0.00 | 56 | 1020.3 |
| 20260509060817 | 62 | 143 | 0.0 | 0.0 | 0.00 | 0.00 | 0.00 | 54 | 1020.3 |
| 20260509055315 | 63 | 202 | 0.0 | 0.0 | 0.00 | 0.00 | 0.00 | 52 | 1020.2 |
| 20260509053811 | 64 | 204 | 0.0 | 1.0 | 0.00 | 0.00 | 0.00 | 50 | 1020.3 |
| 20260509053002 | 65 | 205 | 0.0 | 2.0 | 0.00 | 0.00 | 0.00 | 50 | 1020.2 |
| 20260509050811 | 66 | 201 | 0.0 | 1.0 | 0.00 | 0.00 | 0.00 | 48 | 1020.0 |
| 20260509045310 | 67 | 215 | 0.0 | 5.0 | 0.00 | 0.00 | 0.00 | 46 | 1020.0 |
| 20260509043810 | 67 | 267 | 0.0 | 2.0 | 0.00 | 0.00 | 0.00 | 45 | 1019.6 |
| 20260509042308 | 68 | 276 | 0.0 | 6.0 | 0.00 | 0.00 | 0.00 | 44 | 1019.3 |
| 20260509042155 | 68 | 305 | 0.0 | 7.0 | 0.00 | 0.00 | 0.00 | 44 | 1019.2 |
| 20260509035306 | 69 | 272 | 0.0 | 4.0 | 0.00 | 0.00 | 0.00 | 43 | 1019.0 |
| 20260509034455 | 70 | 299 | 1.0 | 6.0 | 0.00 | 0.00 | 0.00 | 42 | 1018.9 |
| 20260509032307 | 71 | 262 | 1.0 | 7.0 | 0.00 | 0.00 | 0.00 | 41 | 1018.7 |
| 20260509030805 | 71 | 282 | 0.0 | 2.0 | 0.00 | 0.00 | 0.00 | 40 | 1018.4 |
| 20260509025307 | 73 | 291 | 0.0 | 3.0 | 0.00 | 0.00 | 0.00 | 39 | 1018.3 |
| 20260509023805 | 74 | 290 | 1.0 | 7.0 | 0.00 | 0.00 | 0.00 | 37 | 1018.1 |
| 20260509022306 | 74 | 299 | 1.0 | 7.0 | 0.00 | 0.00 | 0.00 | 36 | 1017.9 |
| 20260509020804 | 75 | 322 | 1.0 | 9.0 | 0.00 | 0.00 | 0.00 | 34 | 1017.6 |
| 20260509015306 | 76 | 340 | 1.0 | 10.0 | 0.00 | 0.00 | 0.00 | 32 | 1017.5 |
| 20260509014502 | 77 | 277 | 2.0 | 9.0 | 0.00 | 0.00 | 0.00 | 30 | 1017.1 |
| 20260509012306 | 78 | 327 | 2.0 | 11.0 | 0.00 | 0.00 | 0.00 | 29 | 1017.0 |
| 20260509010802 | 78 | 336 | 1.0 | 6.0 | 0.00 | 0.00 | 0.00 | 29 | 1017.1 |
| 20260509005306 | 79 | 293 | 1.0 | 12.0 | 0.00 | 0.00 | 0.00 | 28 | 1017.1 |
| 20260509003803 | 79 | 321 | 1.0 | 10.0 | 0.00 | 0.00 | 0.00 | 28 | 1017.1 |
| 20260509002306 | 80 | 335 | 1.0 | 8.0 | 0.00 | 0.00 | 0.00 | 26 | 1017.1 |
| 20260509000802 | 80 | 339 | 1.0 | 7.0 | 0.00 | 0.00 | 0.00 | 23 | 1017.0 |
| 20260509000712 | 80 | 248 | 1.0 | 4.0 | 0.00 | 0.00 | 0.00 | 20 | 1017.2 |
| 20260508233802 | 80 | 322 | 1.0 | 4.0 | 0.00 | 0.00 | 0.00 | 21 | 1017.3 |
| 20260508232307 | 80 | 267 | 1.0 | 9.0 | 0.00 | 0.00 | 0.00 | 21 | 1017.5 |
| 20260508231506 | 79 | 330 | 1.0 | 7.0 | 0.00 | 0.00 | 0.00 | 21 | 1017.6 |
| 20260508225300 | 79 | 280 | 1.0 | 7.0 | 0.00 | 0.00 | 0.00 | 21 | 1017.8 |
| 20260508223800 | 79 | 172 | 0.0 | 7.0 | 0.00 | 0.00 | 0.00 | 21 | 1017.9 |
| 20260508223648 | 79 | 326 | 0.0 | 9.0 | 0.00 | 0.00 | 0.00 | 21 | 1018.1 |
| 20260508222841 | 78 | 287 | 0.0 | 1.0 | 0.00 | 0.00 | 0.00 | 22 | 1018.2 |
| 20260508215257 | 78 | 281 | 1.0 | 7.0 | 0.00 | 0.00 | 0.00 | 21 | 1018.4 |
| 20260508214504 | 78 | 293 | 0.0 | 2.0 | 0.00 | 0.00 | 0.00 | 19 | 1018.5 |
| 20260508212956 | 77 | 189 | 0.0 | 0.0 | 0.00 | 0.00 | 0.00 | 20 | 1018.5 |
| 20260508210754 | 77 | 283 | 0.0 | 2.0 | 0.00 | 0.00 | 0.00 | 19 | 1018.6 |
| 20260508205253 | 77 | 268 | 0.0 | 9.0 | 0.00 | 0.00 | 0.00 | 19 | 1018.7 |
| 20260508203752 | 76 | 255 | 0.0 | 4.0 | 0.00 | 0.00 | 0.00 | 19 | 1018.7 |
| 20260508202251 | 76 | 325 | 0.0 | 6.0 | 0.00 | 0.00 | 0.00 | 18 | 1019.0 |
| 20260508201449 | 75 | 276 | 0.0 | 2.0 | 0.00 | 0.00 | 0.00 | 20 | 1018.9 |
| 20260508195250 | 75 | 334 | 0.0 | 2.0 | 0.00 | 0.00 | 0.00 | 16 | 1019.1 |
| 20260508193748 | 73 | 278 | 0.0 | 6.0 | 0.00 | 0.00 | 0.00 | 17 | 1019.4 |
| 20260508192248 | 72 | 269 | 0.0 | 2.0 | 0.00 | 0.00 | 0.00 | 22 | 1019.6 |
| 20260508190747 | 71 | 277 | 0.0 | 1.0 | 0.00 | 0.00 | 0.00 | 26 | 1019.8 |
| 20260508185247 | 69 | 285 | 0.0 | 2.0 | 0.00 | 0.00 | 0.00 | 29 | 1019.8 |
| 20260508183748 | 68 | 268 | 0.0 | 1.0 | 0.00 | 0.00 | 0.00 | 32 | 1019.9 |
| 20260508182248 | 68 | 272 | 0.0 | 2.0 | 0.00 | 0.00 | 0.00 | 32 | 1020.1 |
| 20260508180745 | 66 | 302 | 0.0 | 1.0 | 0.00 | 0.00 | 0.00 | 36 | 1020.1 |
| 20260508175243 | 65 | 339 | 0.0 | 2.0 | 0.00 | 0.00 | 0.00 | 42 | 1020.2 |
| 20260508174435 | 64 | 292 | 0.0 | 2.0 | 0.00 | 0.00 | 0.00 | 41 | 1020.4 |
| 20260508172239 | 63 | 292 | 0.0 | 1.0 | 0.00 | 0.00 | 0.00 | 47 | 1020.5 |
| 20260508170739 | 62 | 267 | 0.0 | 0.0 | 0.00 | 0.00 | 0.00 | 44 | 1020.5 |
| 20260508165933 | 61 | 257 | 0.0 | 2.0 | 0.00 | 0.00 | 0.00 | 50 | 1020.4 |
| 20260508163740 | 60 | 268 | 0.0 | 0.0 | 0.00 | 0.00 | 0.00 | 52 | 1020.4 |